Погода в Корсунь-Шевченковском

Украина / Черкасская область     49°25′02″N   31°15′19″E
темп.,
°C
ветер,
м/с
пор.,
м/с
влажн.,
%
обл.,
%
осадки,
мм/ч
давл.,
гПа
погр.,
м
23 октября, сб
сб2300:00+12зюз335320 0.0 101437
03:00+10зюз5136585 0.0 1014278
06:00+8з4107863 0.0 1014212
09:00+10зюз511676 0.0 1015526
12:00+13з8114094 0.0 10171667
15:00+13зсз8103720 0.0 10172020
18:00+9зсз49435 0.0 1019203
21:00+7з37515 0.0 1021132
24 октября, вс
вс2400:00+5з386389 0.0 1022149
03:00+5з4106889 0.0 1023282
06:00+3з4107815 0.0 1023251
09:00+6зсз51074100 0.0 1024497
12:00+8сз686691 0.0 10251114
15:00+9сз7851100 0.1 10251789
18:00+5ссз6964100 0.0 1028653
21:00+6сз5858100 0.0 1029957
25 октября, пн
пн2500:00+3ссз37765 0.0 1031188
03:00+1сз36768 0.0 1032134
06:000сз34785 0.0 103384
09:00+2ссз24730 0.0 1034159
12:00+6с23515 0.0 1034830
15:00+8с12424 0.0 1033989
18:00+5в11525 0.0 103310
21:00+3юв22596 0.0 103313
26 октября, вт
вт2600:00+2ю22645 0.0 103324
03:00+1ю33685 0.0 103336
06:00+1ю33715 0.0 103246
09:00+3ю37615 0.0 1032177
12:00+9ю57405 0.0 1030695
15:00+11ююз56340 0.0 1028972
18:00+6ю34440 0.0 102845
21:00+4ю35490 0.0 102876
27 октября, ср
ср2700:00+3ю36500 0.0 102798
03:00+2ю48549 0.0 1027127
06:00+2ююз3860100 0.0 1026135
09:00+3ююз4968100 0.0 1026233
12:00+8юз466081 0.0 1025515
15:00+11зюз565546 0.0 10231119
18:00+8з33700 0.0 102325
21:00+6зсз3568100 0.0 102465